Location: Gebenbach
(49.5378°N, 11.8735°E)
Time: 02:27:00
(UTC+00:00)

Aureole 3 - Pass Details

Date: 29 October 2020
Orbit: 382 x 1232 km, 82.5° (Epoch: 24 November)

Event Time Altitude Azimuth Distance (km) Brightness Sun altitude
Rises 17:30:50 0° 201° (SSW) 2,341 6.9 -16.0°
Reaches altitude 10° 17:32:55 10° 207° (SSW) 1,437 5.8 -16.4°
Maximum altitude 17:35:51 46° 283° (WNW) 527 3.7 -16.8°
Drops below altitude 10° 17:38:46 10° 359° (N) 1,429 5.4 -17.3°
Sets 17:40:51 0° 6° (N) 2,326 6.5 -17.6°
